[[{"header":{"parameterUnit":"m.s-1","parameterCategory":1,"la1":30.2991,"la2":30.254,"lo1":-89.0895,"lo2":-89.0444,"dy":0.0017,"dx":0.0017,"nx":28,"ny":28,"refTime":"2024-02-01T03:00:00:Z","depth":0,"parameterNumber":2,"parameterNumberName":"U-component_of_WINDS"},"data":[0,0,0,0,0,0,0,0,0,0,0,0,0,0,0,0,0,0,0,0,0,0,0,0,0,0,0,0,0,0,0,0,0,0,0,0,0,0,0,0,0,0,0,0,0,0,0,0,0,0,0,0,0,0,0,0,0,0,-1.6775,-1.6774,0,-1.6725,-1.6724,-1.6724,-1.6639,-1.6637,-1.6636,-1.6634,-1.6583,-1.6583,-1.6583,0,0,0,0,0,0,0,0,0,0,0,0,0,-1.6799,-1.6799,-1.6775,-1.6774,-1.6774,-1.6725,-1.6724,-1.6724,-1.6639,-1.6637,-1.6635,-1.6633,-1.6583,-1.6583,-1.6583,0,0,0,0,0,0,0,0,0,0,0,0,0,-1.6773,-1.6799,-1.6775,-1.6726,-1.6721,-1.6725,-1.6724,-1.6723,-1.664,-1.6637,-1.6635,-1.6633,-1.6583,-1.6583,-1.6583,-1.6632,0,0,-1.6584,-1.6584,0,0,0,0,0,0,0,0,-1.6774,-1.6772,-1.6734,-1.6729,-1.6724,-1.6686,-1.6714,-1.6693,-1.664,-1.667,-1.6634,-1.6631,-1.6619,-1.6616,-1.6612,-1.6629,-1.6627,-1.6584,-1.6584,-1.6584,-1.6584,0,0,0,0,0,0,0,-1.6776,-1.6774,-1.6755,-1.6733,-1.6727,-1.6706,-1.67,-1.6709,-1.6659,-1.6668,-1.6661,-1.6657,-1.6616,-1.6612,-1.661,-1.6626,-1.6584,-1.6584,-1.6584,-1.6584,-1.6682,-1.6685,0,0,0,0,0,0,-1.6785,-1.6776,-1.6757,-1.6754,-1.6744,-1.6708,-1.6701,-1.67,-1.6658,-1.665,-1.6659,-1.6653,-1.6613,-1.661,-1.6608,-1.6662,-1.6584,-1.6584,-1.6584,-1.668,-1.6683,-1.6685,0,0,0,0,0,0,-1.6786,-1.6784,-1.6759,-1.6763,-1.6758,-1.671,-1.671,-1.67,-1.6696,-1.6652,-1.6642,-1.6664,-1.6611,-1.6608,-1.6627,-1.6659,-1.6584,-1.6584,-1.6677,-1.6681,-1.6684,-1.6771,0,0,0,0,0,0,-1.6787,-1.6785,-1.6802,-1.6764,-1.6758,-1.6778,-1.6712,-1.6701,-1.6697,-1.6689,-1.6654,-1.6646,-1.6609,-1.6627,-1.6627,-1.6658,-1.6584,-1.6674,-1.6678,-1.6683,-1.6765,-1.6777,-1.6788,0,0,0,0,0,-1.6788,-1.6829,-1.6804,-1.6802,-1.6779,-1.678,-1.6777,-1.6733,-1.67,-1.6717,-1.6689,-1.6647,-1.6656,-1.663,-1.6629,-1.6661,-1.6671,-1.6677,-1.6683,-1.676,-1.6775,-1.6788,0,0,0,0,0,0,-1.6872,-1.6823,-1.6794,-1.6824,-1.6807,-1.6766,-1.6786,-1.675,-1.6742,-1.6735,-1.6682,-1.6675,-1.6701,-1.6682,-1.6654,-1.6706,-1.6657,-1.6663,-1.6716,-1.673,-1.6741,-1.6745,-1.6585,0,0,0,0,0,-1.6894,-1.6899,-1.6856,-1.6886,-1.6879,-1.6834,-1.6833,-1.6801,-1.6781,-1.6774,-1.6746,-1.6729,-1.6728,-1.6728,-1.6725,-1.6763,-1.6754,-1.6784,-1.6796,-1.6805,-1.6811,-1.683,-1.6843,-1.6704,-1.6704,-1.6704,0,0,-1.6939,-1.6913,-1.6919,-1.6902,-1.6885,-1.6891,-1.6829,-1.6838,-1.6842,-1.6775,-1.6791,-1.6771,-1.6748,-1.6777,-1.6788,-1.6763,-1.6848,-1.6813,-1.6821,-1.682,-1.6837,-1.685,-1.6862,-1.6708,-1.6707,-1.6706,0,0,-1.7025,-1.7006,-1.7029,-1.7013,-1.6989,-1.6959,-1.6965,-1.693,-1.6914,-1.6929,-1.688,-1.6885,-1.6884,-1.687,-1.6862,-1.6945,-1.6907,-1.6946,-1.7005,-1.7024,-1.7035,-1.7045,-1.7074,-1.7086,-1.6951,-1.6952,-1.6952,0,-1.7084,-1.7091,-1.7045,-1.7058,-1.7052,-1.6992,-1.7016,-1.7003,-1.6979,-1.6977,-1.6949,-1.6947,-1.6928,-1.6953,-1.6973,-1.6969,-1.6975,-1.6949,-1.7038,-1.7047,-1.7055,-1.7082,-1.7094,-1.6957,-1.6956,-1.6956,-1.6955,0,-1.7166,-1.7172,-1.7193,-1.7172,-1.7169,-1.7187,-1.7144,-1.7146,-1.7116,-1.709,-1.7107,-1.7082,-1.7073,-1.7076,-1.7046,-1.7098,-1.7083,-1.7047,-1.6997,-1.7074,-1.7099,-1.7109,-1.6964,-1.6962,-1.696,-1.6959,0,0,-1.73,-1.7254,-1.7263,-1.7253,-1.7222,-1.7226,-1.7243,-1.7234,-1.7237,-1.7223,-1.7236,-1.7237,-1.7205,-1.7197,-1.7165,-1.7182,-1.725,-1.7144,-1.7143,-1.7164,-1.7306,-1.7332,-1.7345,-1.7225,-1.7227,-1.7228,-1.7307,0,-1.7379,-1.7403,-1.7363,-1.7396,-1.7402,-1.7347,-1.7361,-1.7344,-1.7321,-1.7323,-1.7297,-1.7299,-1.7256,-1.7251,-1.7265,-1.7239,-1.7277,-1.7232,-1.7236,-1.7236,-1.7242,-1.7358,-1.7385,-1.7461,-1.7317,-1.7318,-1.732,0,-1.7473,-1.7464,-1.7499,-1.7467,-1.7468,-1.7481,-1.7471,-1.7473,-1.7454,-1.7436,-1.7428,-1.7391,-1.7405,-1.7358,-1.7377,-1.7348,-1.7347,-1.7335,-1.7336,-1.7334,-1.7282,-1.7358,-1.7484,-1.7495,-1.7335,-1.7333,-1.7332,0,-1.7568,-1.7564,-1.7585,-1.7578,-1.7542,-1.7553,-1.7538,-1.7516,-1.7514,-1.7505,-1.7504,-1.7497,-1.7493,-1.7489,-1.7451,-1.742,-1.7475,-1.7425,-1.7461,-1.7462,-1.7473,-1.7473,-1.7601,-1.7475,-1.7475,-1.7475,-1.7475,0,-1.7659,-1.7682,-1.7627,-1.7639,-1.7664,-1.7618,-1.7644,-1.7624,-1.7606,-1.7614,-1.7566,-1.7575,-1.7525,-1.7529,-1.75,-1.752,-1.7519,-1.7505,-1.7497,-1.7509,-1.7511,-1.7507,-1.75,-1.7478,-1.7477,-1.7477,-1.7476,0,-1.7768,-1.7732,-1.775,-1.7715,-1.7707,-1.7727,-1.7697,-1.7707,-1.7682,-1.7693,-1.7693,-1.7653,-1.7655,-1.7618,-1.7612,-1.7592,-1.7626,-1.7609,-1.7632,-1.7627,-1.7664,-1.7661,-1.7793,-1.7808,-1.7674,-1.7676,-1.7677,0,-1.7827,-1.7844,-1.7811,-1.7813,-1.7801,-1.7805,-1.7803,-1.776,-1.7759,-1.774,-1.7753,-1.7751,-1.7747,-1.7753,-1.7724,-1.772,-1.7702,-1.7748,-1.7701,-1.7712,-1.7702,-1.7701,-1.7702,-1.7758,-1.776,-1.7761,-1.7762,0,-1.7938,-1.7919,-1.7918,-1.7911,-1.791,-1.7902,-1.7891,-1.7896,-1.7849,-1.7851,-1.7852,-1.785,-1.7845,-1.7844,-1.7835,-1.782,-1.7784,-1.7778,-1.7786,-1.7797,-1.781,-1.7803,-1.7659,-1.7774,-1.7773,-1.7772,-1.7772,-1.7771,-1.8023,-1.8036,-1.8015,-1.8015,-1.8003,-1.7994,-1.8003,-1.7979,-1.7979,-1.7972,-1.7947,-1.7953,-1.7934,-1.7918,-1.7908,-1.7912,-1.7889,-1.7901,-1.7904,-1.7907,-1.7914,-1.7811,-1.7911,-1.791,-1.791,-1.7909,-1.7909,0,-1.813,-1.8115,-1.8116,-1.8102,-1.8103,-1.8069,-1.8056,-1.8059,-1.8065,-1.8051,-1.8049,-1.8051,-1.8051,-1.8023,-1.8019,-1.8028,-1.8011,-1.8028,-1.8026,-1.8024,-1.7935,-1.7928,-1.8042,-1.8042,-1.8042,-1.8042,-1.8042,-1.8042,-1.8186,-1.8205,-1.8185,-1.8199,-1.8183,-1.8188,-1.8184,-1.8176,-1.8165,-1.817,-1.8169,-1.8151,-1.8132,-1.8126,-1.8125,-1.8116,-1.8117,-1.814,-1.8126,-1.8043,-1.803,-1.8018,-1.8011,-1.814,-1.8141,-1.8214,-1.8215,-1.8216]},{"header":{"parameterUnit":"m.s-1","parameterCategory":1,"la1":30.2991,"la2":30.254,"lo1":-89.0895,"lo2":-89.0444,"dy":0.0017,"dx":0.0017,"nx":28,"ny":28,"refTime":"2024-02-01T03:00:00:Z","depth":0,"parameterNumber":3,"parameterNumberName":"V-component_of_WINDS"},"data":[0,0,0,0,0,0,0,0,0,0,0,0,0,0,0,0,0,0,0,0,0,0,0,0,0,0,0,0,0,0,0,0,0,0,0,0,0,0,0,0,0,0,0,0,0,0,0,0,0,0,0,0,0,0,0,0,0,0,0.6876,0.6876,0,0.6895,0.6895,0.6895,0.6936,0.6936,0.6937,0.6938,0.6955,0.6955,0.6955,0,0,0,0,0,0,0,0,0,0,0,0,0,0.6872,0.6872,0.6876,0.6876,0.6876,0.6895,0.6895,0.6895,0.6935,0.6936,0.6937,0.6938,0.6955,0.6955,0.6955,0,0,0,0,0,0,0,0,0,0,0,0,0,0.6881,0.6872,0.6876,0.6898,0.6901,0.6895,0.6895,0.6895,0.6935,0.6936,0.6938,0.6939,0.6955,0.6955,0.6955,0.6927,0,0,0.6953,0.6953,0,0,0,0,0,0,0,0,0.688,0.6881,0.6895,0.6897,0.6899,0.6914,0.69,0.6906,0.6935,0.6922,0.6938,0.6939,0.694,0.6941,0.6942,0.6928,0.6929,0.6953,0.6953,0.6953,0.6953,0,0,0,0,0,0,0,0.6879,0.688,0.6883,0.6895,0.6898,0.6907,0.691,0.6902,0.6924,0.6923,0.6926,0.6928,0.6942,0.6942,0.6943,0.6929,0.6953,0.6953,0.6952,0.6952,0.6894,0.6893,0,0,0,0,0,0,0.6876,0.6879,0.6883,0.6884,0.6893,0.6906,0.6909,0.6908,0.6924,0.6928,0.6927,0.693,0.6943,0.6943,0.6944,0.6913,0.6953,0.6952,0.6952,0.6896,0.6894,0.6893,0,0,0,0,0,0,0.6876,0.6876,0.6882,0.6882,0.6884,0.6905,0.6903,0.6908,0.6908,0.6927,0.6931,0.6924,0.6944,0.6944,0.6931,0.6914,0.6952,0.6952,0.6897,0.6895,0.6893,0.6852,0,0,0,0,0,0,0.6875,0.6875,0.6865,0.6882,0.6884,0.6869,0.6902,0.6907,0.6908,0.6912,0.6925,0.6928,0.6945,0.6932,0.6931,0.6914,0.6951,0.6899,0.6896,0.6894,0.6855,0.6848,0.6843,0,0,0,0,0,0.6875,0.6852,0.6865,0.6865,0.6872,0.6868,0.6869,0.6889,0.6906,0.6896,0.6909,0.6928,0.6916,0.693,0.6929,0.6912,0.69,0.6897,0.6894,0.6857,0.685,0.6843,0,0,0,0,0,0,0.6832,0.6855,0.6869,0.6851,0.6858,0.6875,0.6863,0.6881,0.6882,0.6886,0.691,0.6912,0.6896,0.6903,0.6918,0.6887,0.6911,0.6908,0.6883,0.6876,0.6871,0.6869,0.6951,0,0,0,0,0,0.6821,0.6817,0.6837,0.6819,0.6821,0.6842,0.6841,0.6856,0.6863,0.6866,0.6877,0.6883,0.6881,0.6879,0.6878,0.6856,0.6859,0.6844,0.6838,0.6834,0.683,0.682,0.6813,0.6883,0.6883,0.6884,0,0,0.6797,0.6809,0.6804,0.681,0.6817,0.6812,0.6844,0.6837,0.6833,0.6865,0.6854,0.6862,0.6871,0.6853,0.6846,0.6858,0.6812,0.683,0.6826,0.6826,0.6816,0.6809,0.6803,0.6881,0.6882,0.6882,0,0,0.6751,0.6759,0.6746,0.6752,0.6763,0.6777,0.6774,0.6789,0.6796,0.6786,0.681,0.6805,0.6801,0.6806,0.6808,0.6765,0.6783,0.6764,0.6734,0.6724,0.6718,0.6713,0.6698,0.6692,0.6761,0.6761,0.6761,0,0.6719,0.6713,0.6736,0.6728,0.673,0.676,0.6746,0.6751,0.676,0.6761,0.6775,0.6771,0.6779,0.6763,0.6753,0.6753,0.675,0.6763,0.6717,0.6713,0.6708,0.6694,0.6688,0.6759,0.6759,0.6759,0.6759,0,0.6674,0.667,0.6657,0.6667,0.6667,0.6656,0.6677,0.6675,0.669,0.6702,0.6692,0.6702,0.6704,0.6702,0.6716,0.6688,0.6695,0.6713,0.6737,0.6699,0.6686,0.668,0.6755,0.6756,0.6757,0.6758,0,0,0.66,0.6624,0.6619,0.6624,0.6638,0.6635,0.6625,0.6628,0.6626,0.6632,0.6624,0.662,0.6637,0.6639,0.6655,0.6645,0.6611,0.6664,0.6665,0.6653,0.6581,0.6567,0.656,0.6623,0.6622,0.6621,0.658,0,0.6557,0.6543,0.6564,0.6545,0.6541,0.657,0.6562,0.6569,0.6581,0.6579,0.6591,0.6588,0.661,0.6612,0.6604,0.6616,0.6596,0.662,0.6615,0.6615,0.6612,0.6554,0.6539,0.65,0.6575,0.6574,0.6574,0,0.6505,0.6509,0.649,0.6506,0.6505,0.6498,0.6502,0.65,0.651,0.6519,0.6522,0.6541,0.6532,0.6556,0.6545,0.6561,0.656,0.6566,0.6565,0.6565,0.6591,0.6551,0.6487,0.6481,0.6566,0.6566,0.6567,0,0.6453,0.6454,0.6443,0.6446,0.6465,0.6459,0.6466,0.6477,0.6478,0.6482,0.6482,0.6485,0.6486,0.6488,0.6506,0.6522,0.6493,0.6518,0.65,0.6499,0.6491,0.6491,0.6426,0.6492,0.6492,0.6492,0.6492,0,0.6402,0.6389,0.642,0.6412,0.6399,0.6423,0.6409,0.6419,0.6429,0.6424,0.6449,0.6444,0.6469,0.6467,0.6481,0.647,0.647,0.6477,0.6481,0.6474,0.6473,0.6474,0.6477,0.649,0.6491,0.6491,0.6491,0,0.6342,0.6362,0.6351,0.637,0.6375,0.6364,0.638,0.6374,0.6388,0.6382,0.6382,0.6403,0.6401,0.642,0.6422,0.6432,0.6414,0.6422,0.641,0.6413,0.6393,0.6395,0.6325,0.6317,0.6388,0.6388,0.6387,0,0.6308,0.6299,0.6317,0.6316,0.6323,0.6321,0.6322,0.6346,0.6346,0.6357,0.6349,0.635,0.6352,0.6348,0.6363,0.6365,0.6374,0.635,0.6374,0.6368,0.6373,0.6373,0.6373,0.6344,0.6343,0.6342,0.6342,0,0.6245,0.6256,0.6257,0.6262,0.6263,0.6268,0.6274,0.6272,0.6298,0.6296,0.6296,0.6297,0.63,0.63,0.6305,0.6312,0.6331,0.6334,0.633,0.6323,0.6316,0.6319,0.6396,0.6335,0.6336,0.6337,0.6337,0.6337,0.6197,0.6191,0.6203,0.6204,0.6211,0.6217,0.6212,0.6226,0.6226,0.6231,0.6245,0.6242,0.6252,0.6261,0.6266,0.6264,0.6276,0.6269,0.6268,0.6266,0.6262,0.6317,0.6265,0.6265,0.6265,0.6265,0.6266,0,0.6136,0.6146,0.6146,0.6155,0.6155,0.6174,0.6183,0.6181,0.6179,0.6187,0.6189,0.6188,0.6189,0.6205,0.6207,0.6202,0.6211,0.6202,0.6202,0.6204,0.6251,0.6255,0.6195,0.6195,0.6195,0.6195,0.6195,0.6195,0.6104,0.6094,0.6107,0.6101,0.611,0.6108,0.6111,0.6116,0.6124,0.6122,0.6123,0.6134,0.6145,0.6149,0.615,0.6155,0.6154,0.6142,0.615,0.6194,0.62,0.6207,0.621,0.6142,0.6142,0.6103,0.6102,0.6102]}]]